Location: Buisson
(44.2787°N, 4.9969°E)
Time: 02:48:47
(UTC+00:00)

SL-4 R/B - Pass Details

Date: 18 April 2021
Orbit: 427 x 663 km, 51.6° (Epoch: 15 May)

Event Time Altitude Azimuth Distance (km) Brightness Sun altitude
Exits shadow 02:59:30 - 301° (WNW) 2,469 5.1 -18.7°
Reaches altitude 10° 03:00:30 10° 303° (WNW) 2,085 4.8 -18.5°
Maximum altitude 03:05:20 72° 28° (NNE) 697 2.6 -17.8°
Drops below altitude 10° 03:10:05 10° 113° (ESE) 2,044 5.3 -17.1°
Sets 03:12:23 0° 115° (ESE) 2,929 6.1 -16.8°
